Regional Weather Roundup
Issued by NWS

Home | Current Version | Previous Version | Graphics & Text | Print | Product List | Glossary On
Versions: 1 2 3 4 5 6 7 8 9 10 11 12 13 14 15 16 17 18 19 20 21 22 23 24 25 26 27 28 29 30 31 32 33 34 35 36 37 38 39 40 41 42 43 44 45 46 47 48 49 50
000
ASUS45 KSLC 292110
RWRUT

UTAH REGIONAL WEATHER ROUNDUP
NATIONAL WEATHER SERVICE SALT LAKE CITY UT
300 PM MDT FRI AUG 29 2014

UTZ001>011-023>025-292200-

NORTHERN UTAH

CITY           SKY/WX    TMP DP  RH WIND       PRES   REMARKS
HILL AFB       SUNNY     84  41  21 VRB3      30.07F
LOGAN          MOSUNNY   84  46  26 SW6       30.04F
OGDEN          SUNNY     85  41  21 SW6       30.04F
PROVO AIRPORT  MOSUNNY   84  45  24 CALM      30.07F
SALT LAKE CITY MOSUNNY   88  38  17 S12       30.01F
VERNAL         MOSUNNY   75  49  39 SW5       30.14F
WENDOVER       MOSUNNY   86  37  17 E10       30.02F
HEBER CITY     MOSUNNY   84  37  18 SW8       30.12F
WEST JORDAN    SUNNY     86  54  32 SE13      30.06F

$$

UTZ012>022-026-027-292200-

SOUTHERN UTAH

CITY           SKY/WX    TMP DP  RH WIND       PRES   REMARKS
BRYCE CANYON   SUNNY     76  34  21 MISG      30.30F
CEDAR CITY     SUNNY     86  26  11 NW8       30.12F
MILFORD        SUNNY     89  29  11 VRB3      30.06F
MOAB/CYNLANDS  SUNNY     87  37  17 E6        30.05F
PRICE          MOSUNNY   82  37  20 VRB3      30.16F
ST GEORGE      CLEAR     93  45  18 CALM      29.95F

$$

REGIONAL REPORTS     COLORADO/ARIZONA

CITY           SKY/WX    TMP DP  RH WIND       PRES   REMARKS
CRAIG, CO      SUNNY     76  44  32 VRB3      30.17F
GRAND JUNCTION MOSUNNY   82  43  25 W9        30.10F
RIFLE          MOSUNNY   79  44  28 W7        30.13F
MONTROSE       SUNNY     79  41  25 NW8       30.18F
CORTEZ         SUNNY     81  39  22 N10       30.15F
PAGE, AZ       SUNNY     90  31  12 N8        30.06F
GRAND CANYON   SUNNY     82  34  17 VRB6      30.24S
KINGMAN        SUNNY     96  34  11 VRB3      29.98F HX  91
FLAGSTAFF      SUNNY     77  35  21 CALM      30.26F

$$

REGIONAL REPORTS    NEVADA/IDAHO/WYOMING

CITY           SKY/WX    TMP DP  RH WIND       PRES   REMARKS
LAS VEGAS, NV  MOSUNNY  103  30   8 S13       29.83F HX  96
ELY            PTSUNNY   84  27  12 MISG      30.14F
ELKO           PTSUNNY   88  30  12 SW6       30.04F
POCATELLO, ID  SUNNY     86  42  21 SW8       30.02F
BURLEY         MOSUNNY   84  46  26 N3        29.99F
EVANSTON, WY   MOSUNNY   77  38  24 SW13      30.22F
ROCK SPRINGS   SUNNY     77  36  22 W16G24    30.18F

$$


USA.gov is the U.S. government's official web portal to all federal, state and local government web resources and services.